Simultaneous Nadir Overpasses (SNOs) Predictions

Prediction of SNOs between METOP-A and TERRA Satellite Orbit:

Table of predicted SNOs for the next 14.0 days since TLE Epoch: 12/14/2013
Index Date (METOP-A) Time (METOP-A) Lat,Lon (METOP-A) SZA (METOP-A ) Date (TERRA) Time (TERRA) Lat,Lon (TERRA) SZA (TERRA ) Distance(km) Time Diff (sec)
1 12/15/2013 10:16:12 81.33, 73.51 107.39 12/15/2013 10:17:09 81.33, 73.38 107.40 2.18 57
2 12/15/2013 11:06:53 -81.32,-119.20 72.62 12/15/2013 11:06:36 -81.32,-119.10 72.62 1.82 17
3 12/18/2013 05:50:35 81.32, 139.80 107.45 12/18/2013 05:51:35 81.32, 139.64 107.45 2.76 60
4 12/18/2013 06:41:16 -81.32, -52.91 72.56 12/18/2013 06:41:02 -81.32, -52.78 72.56 2.13 14
5 12/21/2013 01:24:58 81.32,-153.99 107.43 12/21/2013 01:26:06 81.31,-154.14 107.44 2.61 68
6 12
